Year,Month,Day,Hour,Minute,Value (Times are PST for temperature in C)
2014,08,01,00,00,18.40
2014,08,01,00,01,18.30
2014,08,01,00,02,18.30
2014,08,01,00,03,18.30
2014,08,01,00,04,18.30
2014,08,01,00,05,18.20
2014,08,01,00,06,18.20
2014,08,01,00,07,18.20
2014,08,01,00,08,18.20
2014,08,01,00,09,18.30
2014,08,01,00,10,18.30
2014,08,01,00,11,18.30
2014,08,01,00,12,18.30
2014,08,01,00,13,18.20
2014,08,01,00,14,18.20
2014,08,01,00,15,18.20
2014,08,01,00,16,18.20
2014,08,01,00,17,18.10
2014,08,01,00,18,18.10
2014,08,01,00,19,18.00
2014,08,01,00,20,18.00
2014,08,01,00,21,18.00
2014,08,01,00,22,17.90
2014,08,01,00,23,17.90
2014,08,01,00,24,17.90
2014,08,01,00,25,17.90
2014,08,01,00,26,17.80
2014,08,01,00,27,17.80
2014,08,01,00,28,17.80
2014,08,01,00,29,17.80
2014,08,01,00,30,17.80
2014,08,01,00,31,17.70
2014,08,01,00,32,17.70
2014,08,01,00,33,17.60
2014,08,01,00,34,17.60
2014,08,01,00,35,17.60
2014,08,01,00,36,17.60
2014,08,01,00,37,17.60
2014,08,01,00,38,17.50
2014,08,01,00,39,17.50
2014,08,01,00,40,17.50
2014,08,01,00,41,17.50
2014,08,01,00,42,17.60
2014,08,01,00,43,17.60
2014,08,01,00,44,17.50
2014,08,01,00,45,17.50
2014,08,01,00,46,17.50
2014,08,01,00,47,17.50
2014,08,01,00,48,17.50
2014,08,01,00,49,17.50
2014,08,01,00,50,17.50
2014,08,01,00,51,17.40
2014,08,01,00,52,17.40
2014,08,01,00,53,17.40
2014,08,01,00,54,17.30
2014,08,01,00,55,17.30
2014,08,01,00,56,17.20
2014,08,01,00,57,17.20
2014,08,01,00,58,17.20
2014,08,01,00,59,17.10
2014,08,01,01,00,17.10
2014,08,01,01,01,17.10
2014,08,01,01,02,17.00
2014,08,01,01,03,17.00
2014,08,01,01,04,16.90
2014,08,01,01,05,16.90
2014,08,01,01,06,16.80
2014,08,01,01,07,16.80
2014,08,01,01,08,16.80
2014,08,01,01,09,16.80
2014,08,01,01,10,16.80
2014,08,01,01,11,16.80
2014,08,01,01,12,16.80
2014,08,01,01,13,16.80
2014,08,01,01,14,16.70
2014,08,01,01,15,16.70
2014,08,01,01,16,16.70
2014,08,01,01,17,16.70
2014,08,01,01,18,16.70
2014,08,01,01,19,16.70
2014,08,01,01,20,16.70
2014,08,01,01,21,16.70
2014,08,01,01,22,16.70
2014,08,01,01,23,16.70
2014,08,01,01,24,16.70
2014,08,01,01,25,16.70
2014,08,01,01,26,16.70
2014,08,01,01,27,16.70
2014,08,01,01,28,16.70
2014,08,01,01,29,16.70
2014,08,01,01,30,16.70
2014,08,01,01,31,16.70
2014,08,01,01,32,16.70
2014,08,01,01,33,16.70
2014,08,01,01,34,16.70
2014,08,01,01,35,16.70
2014,08,01,01,36,16.70
2014,08,01,01,37,16.70
2014,08,01,01,38,16.70
2014,08,01,01,39,16.60
2014,08,01,01,40,16.60
2014,08,01,01,41,16.60
2014,08,01,01,42,16.60
2014,08,01,01,43,16.60
2014,08,01,01,44,16.60
2014,08,01,01,45,16.60
2014,08,01,01,46,16.60
2014,08,01,01,47,16.60
2014,08,01,01,48,16.60
2014,08,01,01,49,16.60
2014,08,01,01,50,16.60
2014,08,01,01,51,16.60
2014,08,01,01,52,16.60
2014,08,01,01,53,16.60
2014,08,01,01,54,16.60
2014,08,01,01,55,16.60
2014,08,01,01,56,16.60
2014,08,01,01,57,16.60
2014,08,01,01,58,16.60
2014,08,01,01,59,16.60
2014,08,01,02,00,16.60
2014,08,01,02,01,16.60
2014,08,01,02,02,16.60
2014,08,01,02,03,16.60
2014,08,01,02,04,16.60
2014,08,01,02,05,16.50
2014,08,01,02,06,16.50
2014,08,01,02,07,16.50
2014,08,01,02,08,16.40
2014,08,01,02,09,16.40
2014,08,01,02,10,16.30
2014,08,01,02,11,16.30
2014,08,01,02,12,16.30
2014,08,01,02,13,16.30
2014,08,01,02,14,16.20
2014,08,01,02,15,16.20
2014,08,01,02,16,16.20
2014,08,01,02,17,16.20
2014,08,01,02,18,16.20
2014,08,01,02,19,16.10
2014,08,01,02,20,16.10
2014,08,01,02,21,16.10
2014,08,01,02,22,16.00
2014,08,01,02,23,16.00
2014,08,01,02,24,15.90
2014,08,01,02,25,15.90
2014,08,01,02,26,15.90
2014,08,01,02,27,15.90
2014,08,01,02,28,15.90
2014,08,01,02,29,15.90
2014,08,01,02,30,15.80
2014,08,01,02,31,15.80
2014,08,01,02,32,15.80
2014,08,01,02,33,15.80
2014,08,01,02,34,15.80
2014,08,01,02,35,15.80
2014,08,01,02,36,15.90
2014,08,01,02,37,15.90
2014,08,01,02,38,15.90
2014,08,01,02,39,15.90
2014,08,01,02,40,15.90
2014,08,01,02,41,15.90
2014,08,01,02,42,15.80
2014,08,01,02,43,15.80
2014,08,01,02,44,15.80
2014,08,01,02,45,15.80
2014,08,01,02,46,15.80
2014,08,01,02,47,15.70
2014,08,01,02,48,15.70
2014,08,01,02,49,15.70
2014,08,01,02,50,15.70
2014,08,01,02,51,15.70
2014,08,01,02,52,15.70
2014,08,01,02,53,15.70
2014,08,01,02,54,15.70
2014,08,01,02,55,15.70
2014,08,01,02,56,15.70
2014,08,01,02,57,15.70
2014,08,01,02,58,15.70
2014,08,01,02,59,15.60
2014,08,01,03,00,15.60
2014,08,01,03,01,15.60
2014,08,01,03,02,15.60
2014,08,01,03,03,15.60
2014,08,01,03,04,15.60
2014,08,01,03,05,15.50
2014,08,01,03,06,15.50
2014,08,01,03,07,15.50
2014,08,01,03,08,15.50
2014,08,01,03,09,15.50
2014,08,01,03,10,15.40
2014,08,01,03,11,15.50
2014,08,01,03,12,15.40
2014,08,01,03,13,15.40
2014,08,01,03,14,15.40
2014,08,01,03,15,15.40
2014,08,01,03,16,15.40
2014,08,01,03,17,15.40
2014,08,01,03,18,15.40
2014,08,01,03,19,15.40
2014,08,01,03,20,15.40
2014,08,01,03,21,15.40
2014,08,01,03,22,15.30
2014,08,01,03,23,15.30
2014,08,01,03,24,15.30
2014,08,01,03,25,15.30
2014,08,01,03,26,15.30
2014,08,01,03,27,15.30
2014,08,01,03,28,15.30
2014,08,01,03,29,15.30
2014,08,01,03,30,15.30
2014,08,01,03,31,15.30
2014,08,01,03,32,15.30
2014,08,01,03,33,15.30
2014,08,01,03,34,15.20
2014,08,01,03,35,15.20
2014,08,01,03,36,15.20
2014,08,01,03,37,15.20
2014,08,01,03,38,15.10
2014,08,01,03,39,15.10
2014,08,01,03,40,15.10
2014,08,01,03,41,15.10
2014,08,01,03,42,15.10
2014,08,01,03,43,15.10
2014,08,01,03,44,15.10
2014,08,01,03,45,15.10
2014,08,01,03,46,15.00
2014,08,01,03,47,15.00
2014,08,01,03,48,15.00
2014,08,01,03,49,15.00
2014,08,01,03,50,15.00
2014,08,01,03,51,15.00
2014,08,01,03,52,15.00
2014,08,01,03,53,15.00
2014,08,01,03,54,15.00
2014,08,01,03,55,15.00
2014,08,01,03,56,15.00
2014,08,01,03,57,15.00
2014,08,01,03,58,14.90
2014,08,01,03,59,14.90
2014,08,01,04,00,14.90
2014,08,01,04,01,14.90
2014,08,01,04,02,14.90
2014,08,01,04,03,14.90
2014,08,01,04,04,14.90
2014,08,01,04,05,14.90
2014,08,01,04,06,14.90
2014,08,01,04,07,14.80
2014,08,01,04,08,14.80
2014,08,01,04,09,14.80
2014,08,01,04,10,14.80
2014,08,01,04,11,14.80
2014,08,01,04,12,14.80
2014,08,01,04,13,14.70
2014,08,01,04,14,14.70
2014,08,01,04,15,14.70
2014,08,01,04,16,14.70
2014,08,01,04,17,14.60
2014,08,01,04,18,14.60
2014,08,01,04,19,14.60
2014,08,01,04,20,14.60
2014,08,01,04,21,14.70
2014,08,01,04,22,14.70
2014,08,01,04,23,14.70
2014,08,01,04,24,14.70
2014,08,01,04,25,14.70
2014,08,01,04,26,14.70
2014,08,01,04,27,14.70
2014,08,01,04,28,14.80
2014,08,01,04,29,14.80
2014,08,01,04,30,14.80
2014,08,01,04,31,14.80
2014,08,01,04,32,14.80
2014,08,01,04,33,14.80
2014,08,01,04,34,14.80
2014,08,01,04,35,14.80
2014,08,01,04,36,14.80
2014,08,01,04,37,14.80
2014,08,01,04,38,14.80
2014,08,01,04,39,14.80
2014,08,01,04,40,14.80
2014,08,01,04,41,14.80
2014,08,01,04,42,14.70
2014,08,01,04,43,14.70
2014,08,01,04,44,14.70
2014,08,01,04,45,14.70
2014,08,01,04,46,14.70
2014,08,01,04,47,14.70
2014,08,01,04,48,14.70
2014,08,01,04,49,14.70
2014,08,01,04,50,14.60
2014,08,01,04,51,14.70
2014,08,01,04,52,14.70
2014,08,01,04,53,14.70
2014,08,01,04,54,14.70
2014,08,01,04,55,14.70
2014,08,01,04,56,14.70
2014,08,01,04,57,14.70
2014,08,01,04,58,14.70
2014,08,01,04,59,14.70
2014,08,01,05,00,14.80
2014,08,01,05,01,14.80
2014,08,01,05,02,14.80
2014,08,01,05,03,14.90
2014,08,01,05,04,14.90
2014,08,01,05,05,14.90
2014,08,01,05,06,15.00
2014,08,01,05,07,15.00
2014,08,01,05,08,15.10
2014,08,01,05,09,15.10
2014,08,01,05,10,15.10
2014,08,01,05,11,15.10
2014,08,01,05,12,15.10
2014,08,01,05,13,15.10
2014,08,01,05,14,15.10
2014,08,01,05,15,15.00
2014,08,01,05,16,15.00
2014,08,01,05,17,15.00
2014,08,01,05,18,14.90
2014,08,01,05,19,14.90
2014,08,01,05,20,14.90
2014,08,01,05,21,14.90
2014,08,01,05,22,14.80
2014,08,01,05,23,14.80
2014,08,01,05,24,14.80
2014,08,01,05,25,14.70
2014,08,01,05,26,14.70
2014,08,01,05,27,14.70
2014,08,01,05,28,14.70
2014,08,01,05,29,14.60
2014,08,01,05,30,14.60
2014,08,01,05,31,14.60
2014,08,01,05,32,14.60
2014,08,01,05,33,14.60
2014,08,01,05,34,14.60
2014,08,01,05,35,14.60
2014,08,01,05,36,14.50
2014,08,01,05,37,14.50
2014,08,01,05,38,14.50
2014,08,01,05,39,14.50
2014,08,01,05,40,14.40
2014,08,01,05,41,14.40
2014,08,01,05,42,14.40
2014,08,01,05,43,14.40
2014,08,01,05,44,14.40
2014,08,01,05,45,14.30
2014,08,01,05,46,14.30
2014,08,01,05,47,14.30
2014,08,01,05,48,14.30
2014,08,01,05,49,14.30
2014,08,01,05,50,14.30
2014,08,01,05,51,14.30
2014,08,01,05,52,14.20
2014,08,01,05,53,14.20
2014,08,01,05,54,14.20
2014,08,01,05,55,14.20
2014,08,01,05,56,14.20
2014,08,01,05,57,14.20
2014,08,01,05,58,14.20
2014,08,01,05,59,14.20
2014,08,01,06,00,14.30
2014,08,01,06,01,14.30
2014,08,01,06,02,14.30
2014,08,01,06,03,14.30
2014,08,01,06,04,14.20
2014,08,01,06,05,14.20
2014,08,01,06,06,14.20
2014,08,01,06,07,14.20
2014,08,01,06,08,14.20
2014,08,01,06,09,14.20
2014,08,01,06,10,14.20
2014,08,01,06,11,14.20
2014,08,01,06,12,14.20
2014,08,01,06,13,14.20
2014,08,01,06,14,14.20
2014,08,01,06,15,14.20
2014,08,01,06,16,14.20
2014,08,01,06,17,14.20
2014,08,01,06,18,14.20
2014,08,01,06,19,14.20
2014,08,01,06,20,14.20
2014,08,01,06,21,14.20
2014,08,01,06,22,14.20
2014,08,01,06,23,14.20
2014,08,01,06,24,14.20
2014,08,01,06,25,14.20
2014,08,01,06,26,14.20
2014,08,01,06,27,14.20
2014,08,01,06,28,14.30
2014,08,01,06,29,14.30
2014,08,01,06,30,14.30
2014,08,01,06,31,14.40
2014,08,01,06,32,14.40
2014,08,01,06,33,14.50
2014,08,01,06,34,14.50
2014,08,01,06,35,14.60
2014,08,01,06,36,14.60
2014,08,01,06,37,14.70
2014,08,01,06,38,14.70
2014,08,01,06,39,14.70
2014,08,01,06,40,14.80
2014,08,01,06,41,14.80
2014,08,01,06,42,14.80
2014,08,01,06,43,14.80
2014,08,01,06,44,14.90
2014,08,01,06,45,14.90
2014,08,01,06,46,15.00
2014,08,01,06,47,15.00
2014,08,01,06,48,15.00
2014,08,01,06,49,15.10
2014,08,01,06,50,15.10
2014,08,01,06,51,15.10
2014,08,01,06,52,15.10
2014,08,01,06,53,15.10
2014,08,01,06,54,15.10
2014,08,01,06,55,15.20
2014,08,01,06,56,15.20
2014,08,01,06,57,15.20
2014,08,01,06,58,15.20
2014,08,01,06,59,15.20
2014,08,01,07,00,15.30
2014,08,01,07,01,15.30
2014,08,01,07,02,15.30
2014,08,01,07,03,15.30
2014,08,01,07,04,15.40
2014,08,01,07,05,15.40
2014,08,01,07,06,15.50
2014,08,01,07,07,15.50
2014,08,01,07,08,15.60
2014,08,01,07,09,15.60
2014,08,01,07,10,15.70
2014,08,01,07,11,15.70
2014,08,01,07,12,15.80
2014,08,01,07,13,15.80
2014,08,01,07,14,15.90
2014,08,01,07,15,15.90
2014,08,01,07,16,16.00
2014,08,01,07,17,16.00
2014,08,01,07,18,16.10
2014,08,01,07,19,16.10
2014,08,01,07,20,16.20
2014,08,01,07,21,16.20
2014,08,01,07,22,16.20
2014,08,01,07,23,16.20
2014,08,01,07,24,16.20
2014,08,01,07,25,16.10
2014,08,01,07,26,16.10
2014,08,01,07,27,16.10
2014,08,01,07,28,16.20
2014,08,01,07,29,16.20
2014,08,01,07,30,16.30
2014,08,01,07,31,16.30
2014,08,01,07,32,16.40
2014,08,01,07,33,16.40
2014,08,01,07,34,16.50
2014,08,01,07,35,16.60
2014,08,01,07,36,16.70
2014,08,01,07,37,16.70
2014,08,01,07,38,16.80
2014,08,01,07,39,16.90
2014,08,01,07,40,17.00
2014,08,01,07,41,17.10
2014,08,01,07,42,17.10
2014,08,01,07,43,17.20
2014,08,01,07,44,17.30
2014,08,01,07,45,17.30
2014,08,01,07,46,17.40
2014,08,01,07,47,17.50
2014,08,01,07,48,17.60
2014,08,01,07,49,17.70
2014,08,01,07,50,17.70
2014,08,01,07,51,17.80
2014,08,01,07,52,17.80
2014,08,01,07,53,17.90
2014,08,01,07,54,17.90
2014,08,01,07,55,18.00
2014,08,01,07,56,18.00
2014,08,01,07,57,18.10
2014,08,01,07,58,18.20
2014,08,01,07,59,18.30
2014,08,01,08,00,18.40
2014,08,01,08,01,18.50
2014,08,01,08,02,18.50
2014,08,01,08,03,18.60
2014,08,01,08,04,18.60
2014,08,01,08,05,18.70
2014,08,01,08,06,18.80
2014,08,01,08,07,18.80
2014,08,01,08,08,18.90
2014,08,01,08,09,18.90
2014,08,01,08,10,18.90
2014,08,01,08,11,18.80
2014,08,01,08,12,18.80
2014,08,01,08,13,18.70
2014,08,01,08,14,18.70
2014,08,01,08,15,18.70
2014,08,01,08,16,18.70
2014,08,01,08,17,18.60
2014,08,01,08,18,18.60
2014,08,01,08,19,18.60
2014,08,01,08,20,18.50
2014,08,01,08,21,18.50
2014,08,01,08,22,18.50
2014,08,01,08,23,18.50
2014,08,01,08,24,18.50
2014,08,01,08,25,18.50
2014,08,01,08,26,18.50
2014,08,01,08,27,18.60
2014,08,01,08,28,18.70
2014,08,01,08,29,18.80
2014,08,01,08,30,19.00
2014,08,01,08,31,19.20
2014,08,01,08,32,19.30
2014,08,01,08,33,19.40
2014,08,01,08,34,19.50
2014,08,01,08,35,19.60
2014,08,01,08,36,19.70
2014,08,01,08,37,19.70
2014,08,01,08,38,19.80
2014,08,01,08,39,19.80
2014,08,01,08,40,19.80
2014,08,01,08,41,19.80
2014,08,01,08,42,19.90
2014,08,01,08,43,19.90
2014,08,01,08,44,20.00
2014,08,01,08,45,20.10
2014,08,01,08,46,20.30
2014,08,01,08,47,20.40
2014,08,01,08,48,20.50
2014,08,01,08,49,20.60
2014,08,01,08,50,20.60
2014,08,01,08,51,20.70
2014,08,01,08,52,20.70
2014,08,01,08,53,20.70
2014,08,01,08,54,20.70
2014,08,01,08,55,20.70
2014,08,01,08,56,20.80
2014,08,01,08,57,20.80
2014,08,01,08,58,20.80
2014,08,01,08,59,20.90
2014,08,01,09,00,21.00
2014,08,01,09,01,21.00
2014,08,01,09,02,21.00
2014,08,01,09,03,21.00
2014,08,01,09,04,21.00
2014,08,01,09,05,21.00
2014,08,01,09,06,21.00
2014,08,01,09,07,21.10
2014,08,01,09,08,21.10
2014,08,01,09,09,21.10
2014,08,01,09,10,21.20
2014,08,01,09,11,21.20
2014,08,01,09,12,21.20
2014,08,01,09,13,21.30
2014,08,01,09,14,21.30
2014,08,01,09,15,21.40
2014,08,01,09,16,21.50
2014,08,01,09,17,21.60
2014,08,01,09,18,21.70
2014,08,01,09,19,21.80
2014,08,01,09,20,21.80
2014,08,01,09,21,21.90
2014,08,01,09,22,22.10
2014,08,01,09,23,22.20
2014,08,01,09,24,22.30
2014,08,01,09,25,22.30
2014,08,01,09,26,22.40
2014,08,01,09,27,22.50
2014,08,01,09,28,22.50
2014,08,01,09,29,22.50
2014,08,01,09,30,22.60
2014,08,01,09,31,22.60
2014,08,01,09,32,22.70
2014,08,01,09,33,22.70
2014,08,01,09,34,22.80
2014,08,01,09,35,22.80
2014,08,01,09,36,22.90
2014,08,01,09,37,23.00
2014,08,01,09,38,23.00
2014,08,01,09,39,23.10
2014,08,01,09,40,23.20
2014,08,01,09,41,23.30
2014,08,01,09,42,23.30
2014,08,01,09,43,23.40
2014,08,01,09,44,23.50
2014,08,01,09,45,23.50
2014,08,01,09,46,23.60
2014,08,01,09,47,23.60
2014,08,01,09,48,23.60
2014,08,01,09,49,23.50
2014,08,01,09,50,23.50
2014,08,01,09,51,23.40
2014,08,01,09,52,23.40
2014,08,01,09,53,23.30
2014,08,01,09,54,23.20
2014,08,01,09,55,23.10
2014,08,01,09,56,23.10
2014,08,01,09,57,23.00
2014,08,01,09,58,23.00
2014,08,01,09,59,22.90
2014,08,01,10,00,22.90
2014,08,01,10,01,22.80
2014,08,01,10,02,22.80
2014,08,01,10,03,22.80
2014,08,01,10,04,22.90
2014,08,01,10,05,23.00
2014,08,01,10,06,23.00
2014,08,01,10,07,23.10
2014,08,01,10,08,23.10
2014,08,01,10,09,23.00
2014,08,01,10,10,23.00
2014,08,01,10,11,23.00
2014,08,01,10,12,23.00
2014,08,01,10,13,22.90
2014,08,01,10,14,22.90
2014,08,01,10,15,22.90
2014,08,01,10,16,22.90
2014,08,01,10,17,22.90
2014,08,01,10,18,23.00
2014,08,01,10,19,23.10
2014,08,01,10,20,23.20
2014,08,01,10,21,23.30
2014,08,01,10,22,23.40
2014,08,01,10,23,23.50
2014,08,01,10,24,23.60
2014,08,01,10,25,23.70
2014,08,01,10,26,23.80
2014,08,01,10,27,24.00
2014,08,01,10,28,24.10
2014,08,01,10,29,24.30
2014,08,01,10,30,24.30
2014,08,01,10,31,24.30
2014,08,01,10,32,24.20
2014,08,01,10,33,24.30
2014,08,01,10,34,24.30
2014,08,01,10,35,24.20
2014,08,01,10,36,24.20
2014,08,01,10,37,24.30
2014,08,01,10,38,24.30
2014,08,01,10,39,24.30
2014,08,01,10,40,24.10
2014,08,01,10,41,24.10
2014,08,01,10,42,24.10
2014,08,01,10,43,24.00
2014,08,01,10,44,23.90
2014,08,01,10,45,24.00
2014,08,01,10,46,24.10
2014,08,01,10,47,24.20
2014,08,01,10,48,24.30
2014,08,01,10,49,24.50
2014,08,01,10,50,24.50
2014,08,01,10,51,24.60
2014,08,01,10,52,24.60
2014,08,01,10,53,24.60
2014,08,01,10,54,24.60
2014,08,01,10,55,24.60
2014,08,01,10,56,24.60
2014,08,01,10,57,24.60
2014,08,01,10,58,24.70
2014,08,01,10,59,24.70
2014,08,01,11,00,24.80
2014,08,01,11,01,24.80
2014,08,01,11,02,24.60
2014,08,01,11,03,24.40
2014,08,01,11,04,24.20
2014,08,01,11,05,24.00
2014,08,01,11,06,24.00
2014,08,01,11,07,24.10
2014,08,01,11,08,24.30
2014,08,01,11,09,24.50
2014,08,01,11,10,24.70
2014,08,01,11,11,24.90
2014,08,01,11,12,25.00
2014,08,01,11,13,25.00
2014,08,01,11,14,25.00
2014,08,01,11,15,25.10
2014,08,01,11,16,25.20
2014,08,01,11,17,25.30
2014,08,01,11,18,25.30
2014,08,01,11,19,25.20
2014,08,01,11,20,25.10
2014,08,01,11,21,25.10
2014,08,01,11,22,25.00
2014,08,01,11,23,25.00
2014,08,01,11,24,25.10
2014,08,01,11,25,25.20
2014,08,01,11,26,25.20
2014,08,01,11,27,25.20
2014,08,01,11,28,25.20
2014,08,01,11,29,25.20
2014,08,01,11,30,25.30
2014,08,01,11,31,25.30
2014,08,01,11,32,25.30
2014,08,01,11,33,25.30
2014,08,01,11,34,25.20
2014,08,01,11,35,25.20
2014,08,01,11,36,25.20
2014,08,01,11,37,25.30
2014,08,01,11,38,25.30
2014,08,01,11,39,25.20
2014,08,01,11,40,25.10
2014,08,01,11,41,25.10
2014,08,01,11,42,25.20
2014,08,01,11,43,25.20
2014,08,01,11,44,25.20
2014,08,01,11,45,25.30
2014,08,01,11,46,25.30
2014,08,01,11,47,25.30
2014,08,01,11,48,25.30
2014,08,01,11,49,25.30
2014,08,01,11,50,25.10
2014,08,01,11,51,25.10
2014,08,01,11,52,25.00
2014,08,01,11,53,24.90
2014,08,01,11,54,24.90
2014,08,01,11,55,24.70
2014,08,01,11,56,24.60
2014,08,01,11,57,24.60
2014,08,01,11,58,24.70
2014,08,01,11,59,24.80
2014,08,01,12,00,24.80
2014,08,01,12,01,24.70
2014,08,01,12,02,24.60
2014,08,01,12,03,24.50
2014,08,01,12,04,24.50
2014,08,01,12,05,24.40
2014,08,01,12,06,24.40
2014,08,01,12,07,24.40
2014,08,01,12,08,24.30
2014,08,01,12,09,24.20
2014,08,01,12,10,24.10
2014,08,01,12,11,24.10
2014,08,01,12,12,24.10
2014,08,01,12,13,24.20
2014,08,01,12,14,24.20
2014,08,01,12,15,24.30
2014,08,01,12,16,24.40
2014,08,01,12,17,24.50
2014,08,01,12,18,24.60
2014,08,01,12,19,24.50
2014,08,01,12,20,24.40
2014,08,01,12,21,24.40
2014,08,01,12,22,24.40
2014,08,01,12,23,24.50
2014,08,01,12,24,24.50
2014,08,01,12,25,24.60
2014,08,01,12,26,24.80
2014,08,01,12,27,24.80
2014,08,01,12,28,24.70
2014,08,01,12,29,24.70
2014,08,01,12,30,24.80
2014,08,01,12,31,24.80
2014,08,01,12,32,24.80
2014,08,01,12,33,24.70
2014,08,01,12,34,24.60
2014,08,01,12,35,24.60
2014,08,01,12,36,24.70
2014,08,01,12,37,24.70
2014,08,01,12,38,24.70
2014,08,01,12,39,24.80
2014,08,01,12,40,24.90
2014,08,01,12,41,24.90
2014,08,01,12,42,24.90
2014,08,01,12,43,25.00
2014,08,01,12,44,25.10
2014,08,01,12,45,25.20
2014,08,01,12,46,25.30
2014,08,01,12,47,25.50
2014,08,01,12,48,25.50
2014,08,01,12,49,25.50
2014,08,01,12,50,25.60
2014,08,01,12,51,25.50
2014,08,01,12,52,25.30
2014,08,01,12,53,25.20
2014,08,01,12,54,25.20
2014,08,01,12,55,25.20
2014,08,01,12,56,25.30
2014,08,01,12,57,25.40
2014,08,01,12,58,25.50
2014,08,01,12,59,25.60
2014,08,01,13,00,25.60
2014,08,01,13,01,25.70
2014,08,01,13,02,25.80
2014,08,01,13,03,25.80
2014,08,01,13,04,25.80
2014,08,01,13,05,25.80
2014,08,01,13,06,25.80
2014,08,01,13,07,25.80
2014,08,01,13,08,25.70
2014,08,01,13,09,25.70
2014,08,01,13,10,25.80
2014,08,01,13,11,25.90
2014,08,01,13,12,25.80
2014,08,01,13,13,25.80
2014,08,01,13,14,25.80
2014,08,01,13,15,25.90
2014,08,01,13,16,26.00
2014,08,01,13,17,26.20
2014,08,01,13,18,26.20
2014,08,01,13,19,26.30
2014,08,01,13,20,26.30
2014,08,01,13,21,26.30
2014,08,01,13,22,26.30
2014,08,01,13,23,26.20
2014,08,01,13,24,26.20
2014,08,01,13,25,26.20
2014,08,01,13,26,26.30
2014,08,01,13,27,26.40
2014,08,01,13,28,26.60
2014,08,01,13,29,26.50
2014,08,01,13,30,26.40
2014,08,01,13,31,26.30
2014,08,01,13,32,26.40
2014,08,01,13,33,26.50
2014,08,01,13,34,26.60
2014,08,01,13,35,26.80
2014,08,01,13,36,26.90
2014,08,01,13,37,26.80
2014,08,01,13,38,26.70
2014,08,01,13,39,26.70
2014,08,01,13,40,26.70
2014,08,01,13,41,26.70
2014,08,01,13,42,26.80
2014,08,01,13,43,26.80
2014,08,01,13,44,26.80
2014,08,01,13,45,26.90
2014,08,01,13,46,27.10
2014,08,01,13,47,27.10
2014,08,01,13,48,27.20
2014,08,01,13,49,27.10
2014,08,01,13,50,27.00
2014,08,01,13,51,27.00
2014,08,01,13,52,26.90
2014,08,01,13,53,26.90
2014,08,01,13,54,26.80
2014,08,01,13,55,26.70
2014,08,01,13,56,26.60
2014,08,01,13,57,26.50
2014,08,01,13,58,26.40
2014,08,01,13,59,26.40
2014,08,01,14,00,26.30
2014,08,01,14,01,26.30
2014,08,01,14,02,26.40
2014,08,01,14,03,26.60
2014,08,01,14,04,26.70
2014,08,01,14,05,26.90
2014,08,01,14,06,27.00
2014,08,01,14,07,27.00
2014,08,01,14,08,26.90
2014,08,01,14,09,26.90
2014,08,01,14,10,26.90
2014,08,01,14,11,26.80
2014,08,01,14,12,26.80
2014,08,01,14,13,26.80
2014,08,01,14,14,26.80
2014,08,01,14,15,26.80
2014,08,01,14,16,26.80
2014,08,01,14,17,26.80
2014,08,01,14,18,26.90
2014,08,01,14,19,27.00
2014,08,01,14,20,27.00
2014,08,01,14,21,27.10
2014,08,01,14,22,27.10
2014,08,01,14,23,27.10
2014,08,01,14,24,27.00
2014,08,01,14,25,26.90
2014,08,01,14,26,26.80
2014,08,01,14,27,26.70
2014,08,01,14,28,26.60
2014,08,01,14,29,26.50
2014,08,01,14,30,26.50
2014,08,01,14,31,26.50
2014,08,01,14,32,26.50
2014,08,01,14,33,26.50
2014,08,01,14,34,26.40
2014,08,01,14,35,26.40
2014,08,01,14,36,26.30
2014,08,01,14,37,26.20
2014,08,01,14,38,26.20
2014,08,01,14,39,26.20
2014,08,01,14,40,26.30
2014,08,01,14,41,26.40
2014,08,01,14,42,26.50
2014,08,01,14,43,26.50
2014,08,01,14,44,26.40
2014,08,01,14,45,26.40
2014,08,01,14,46,26.30
2014,08,01,14,47,26.20
2014,08,01,14,48,26.30
2014,08,01,14,49,26.30
2014,08,01,14,50,26.30
2014,08,01,14,51,26.20
2014,08,01,14,52,26.20
2014,08,01,14,53,26.10
2014,08,01,14,54,26.10
2014,08,01,14,55,26.00
2014,08,01,14,56,26.00
2014,08,01,14,57,25.90
2014,08,01,14,58,25.90
2014,08,01,14,59,25.90
2014,08,01,15,00,25.90
2014,08,01,15,01,25.80
2014,08,01,15,02,25.70
2014,08,01,15,03,25.70
2014,08,01,15,04,25.60
2014,08,01,15,05,25.60
2014,08,01,15,06,25.60
2014,08,01,15,07,25.70
2014,08,01,15,08,25.70
2014,08,01,15,09,25.70
2014,08,01,15,10,25.70
2014,08,01,15,11,25.60
2014,08,01,15,12,25.50
2014,08,01,15,13,25.50
2014,08,01,15,14,25.50
2014,08,01,15,15,25.20
2014,08,01,15,16,25.20
2014,08,01,15,17,25.10
2014,08,01,15,18,25.10
2014,08,01,15,19,25.00
2014,08,01,15,20,24.90
2014,08,01,15,21,24.90
2014,08,01,15,22,25.00
2014,08,01,15,23,25.00
2014,08,01,15,24,25.00
2014,08,01,15,25,25.00
2014,08,01,15,26,25.00
2014,08,01,15,27,24.90
2014,08,01,15,28,24.90
2014,08,01,15,29,24.80
2014,08,01,15,30,24.70
2014,08,01,15,31,24.70
2014,08,01,15,32,24.70
2014,08,01,15,33,24.70
2014,08,01,15,34,24.70
2014,08,01,15,35,24.80
2014,08,01,15,36,24.80
2014,08,01,15,37,24.80
2014,08,01,15,38,24.80
2014,08,01,15,39,24.80
2014,08,01,15,40,24.80
2014,08,01,15,41,24.80
2014,08,01,15,42,24.80
2014,08,01,15,43,24.80
2014,08,01,15,44,24.80
2014,08,01,15,45,24.90
2014,08,01,15,46,24.90
2014,08,01,15,47,24.90
2014,08,01,15,48,24.90
2014,08,01,15,49,24.90
2014,08,01,15,50,24.70
2014,08,01,15,51,24.60
2014,08,01,15,52,24.60
2014,08,01,15,53,24.50
2014,08,01,15,54,24.40
2014,08,01,15,55,24.20
2014,08,01,15,56,24.00
2014,08,01,15,57,24.00
2014,08,01,15,58,24.00
2014,08,01,15,59,24.00
2014,08,01,16,00,24.00
2014,08,01,16,01,24.00
2014,08,01,16,02,24.10
2014,08,01,16,03,24.20
2014,08,01,16,04,24.30
2014,08,01,16,05,24.50
2014,08,01,16,06,24.70
2014,08,01,16,07,24.90
2014,08,01,16,08,25.00
2014,08,01,16,09,25.10
2014,08,01,16,10,25.20
2014,08,01,16,11,25.30
2014,08,01,16,12,25.40
2014,08,01,16,13,25.50
2014,08,01,16,14,25.60
2014,08,01,16,15,25.70
2014,08,01,16,16,25.70
2014,08,01,16,17,25.80
2014,08,01,16,18,25.90
2014,08,01,16,19,25.90
2014,08,01,16,20,26.00
2014,08,01,16,21,26.10
2014,08,01,16,22,26.20
2014,08,01,16,23,26.30
2014,08,01,16,24,26.40
2014,08,01,16,25,26.40
2014,08,01,16,26,26.50
2014,08,01,16,27,26.50
2014,08,01,16,28,26.50
2014,08,01,16,29,26.60
2014,08,01,16,30,26.60
2014,08,01,16,31,26.70
2014,08,01,16,32,26.70
2014,08,01,16,33,26.80
2014,08,01,16,34,26.80
2014,08,01,16,35,26.90
2014,08,01,16,36,27.00
2014,08,01,16,37,27.10
2014,08,01,16,38,27.20
2014,08,01,16,39,27.30
2014,08,01,16,40,27.30
2014,08,01,16,41,27.40
2014,08,01,16,42,27.40
2014,08,01,16,43,27.40
2014,08,01,16,44,27.50
2014,08,01,16,45,27.50
2014,08,01,16,46,27.60
2014,08,01,16,47,27.60
2014,08,01,16,48,27.70
2014,08,01,16,49,27.80
2014,08,01,16,50,27.80
2014,08,01,16,51,27.80
2014,08,01,16,52,27.70
2014,08,01,16,53,27.60
2014,08,01,16,54,27.40
2014,08,01,16,55,27.30
2014,08,01,16,56,27.20
2014,08,01,16,57,27.20
2014,08,01,16,58,27.10
2014,08,01,16,59,27.10
2014,08,01,17,00,27.00
2014,08,01,17,01,26.90
2014,08,01,17,02,26.90
2014,08,01,17,03,26.90
2014,08,01,17,04,26.90
2014,08,01,17,05,27.00
2014,08,01,17,06,27.00
2014,08,01,17,07,27.10
2014,08,01,17,08,27.10
2014,08,01,17,09,27.00
2014,08,01,17,10,27.00
2014,08,01,17,11,26.80
2014,08,01,17,12,26.70
2014,08,01,17,13,26.60
2014,08,01,17,14,26.40
2014,08,01,17,15,26.20
2014,08,01,17,16,26.00
2014,08,01,17,17,25.90
2014,08,01,17,18,25.80
2014,08,01,17,19,25.70